BAW935 EDDM-EGLL

Flight info

Callsign BAW935
Flight time N/A
Altitude 34000
Route GIVMI6Q GIVMI Y101 INBED DCT REKDI DCT LOHRE DCT ADKUV DCT DENUT L608 LOGAN LOGAN2H
Aircraft A320/M-SDE3FGIKRWXY/S

Departure

Time 2026-04-30 18:48
Airport Munich Airport (EDDM)

Arrival

Time N/A
Airport London Heathrow Airport (EGLL)
Time Latitude Longitude Altitude Speed Heading
2026-04-30 18:37 48.35278 11.78317 1486 ft 0 kts 83°
2026-04-30 18:38 48.35278 11.78316 1485 ft 0 kts 83°
2026-04-30 18:41 48.35275 11.78288 1473 ft 4 kts 83°
2026-04-30 18:41 48.35273 11.78253 1475 ft 2 kts 83°
2026-04-30 18:41 48.35264 11.78223 1471 ft 4 kts 24°
2026-04-30 18:42 48.35239 11.78216 1472 ft 3 kts 353°
2026-04-30 18:42 48.35221 11.78220 1485 ft 0 kts 353°
2026-04-30 18:45 48.35665 11.77729 1485 ft 22 kts 352°
2026-04-30 18:45 48.35796 11.77705 1481 ft 16 kts 353°
2026-04-30 18:45 48.35884 11.77690 1473 ft 7 kts 353°
2026-04-30 18:46 48.35906 11.77686 1481 ft 1 kts 353°
2026-04-30 18:46 48.35926 11.77682 1485 ft 6 kts 353°
2026-04-30 18:46 48.35990 11.77671 1474 ft 13 kts 353°
2026-04-30 18:46 48.36092 11.77659 1485 ft 16 kts
2026-04-30 18:47 48.36187 11.77784 1483 ft 20 kts 53°
2026-04-30 18:47 48.36243 11.77899 1485 ft 21 kts 54°
2026-04-30 18:47 48.36332 11.78081 1480 ft 22 kts 54°
2026-04-30 18:47 48.36394 11.78297 1485 ft 25 kts 81°
2026-04-30 18:48 48.36438 11.78863 1476 ft 85 kts 83°
2026-04-30 18:48 48.36528 11.80006 1479 ft 132 kts 83°
2026-04-30 18:48 48.36630 11.81406 1983 ft 127 kts 85°
2026-04-30 18:48 48.36720 11.82734 2444 ft 130 kts 84°
2026-04-30 18:49 48.36828 11.84111 2799 ft 139 kts 84°
2026-04-30 18:49 48.37129 11.85609 2936 ft 169 kts 58°
2026-04-30 18:49 48.38198 11.86646 3099 ft 206 kts 16°
2026-04-30 18:49 48.39725 11.86780 3342 ft 233 kts
2026-04-30 18:50 48.41428 11.86487 3728 ft 262 kts 341°
2026-04-30 18:50 48.42907 11.84765 4465 ft 278 kts 313°
2026-04-30 18:50 48.44160 11.82521 5323 ft 282 kts 313°
2026-04-30 18:50 48.45429 11.80253 6182 ft 284 kts 312°
2026-04-30 18:51 48.46708 11.77978 7056 ft 285 kts 312°
2026-04-30 18:51 48.47997 11.75693 7864 ft 288 kts 313°
2026-04-30 18:51 48.49302 11.73389 8652 ft 291 kts 313°
2026-04-30 18:51 48.50622 11.71062 9446 ft 293 kts 313°
2026-04-30 18:52 48.51961 11.68709 10234 ft 296 kts 313°
2026-04-30 18:52 48.53307 11.66341 10925 ft 300 kts 314°
2026-04-30 18:52 48.54673 11.63933 11607 ft 303 kts 314°
2026-04-30 18:52 48.56049 11.61506 12287 ft 306 kts 314°
2026-04-30 18:53 48.57439 11.59046 12929 ft 312 kts 314°
2026-04-30 18:53 48.58881 11.56499 13070 ft 333 kts 314°
2026-04-30 18:53 48.60431 11.53759 13207 ft 354 kts 314°
2026-04-30 18:53 48.62076 11.50843 13611 ft 364 kts 314°
2026-04-30 18:54 48.63710 11.47935 14194 ft 369 kts 314°
2026-04-30 18:54 48.65374 11.44963 14761 ft 372 kts 314°
2026-04-30 18:54 48.67052 11.41963 15334 ft 375 kts 314°
2026-04-30 18:54 48.68742 11.38938 15901 ft 377 kts 315°
2026-04-30 18:55 48.70590 11.36126 16457 ft 375 kts 325°
2026-04-30 18:55 48.74880 11.31662 17597 ft 376 kts 331°
2026-04-30 18:55 48.77075 11.29454 18185 ft 379 kts 332°
2026-04-30 18:56 48.81489 11.24983 19278 ft 384 kts 331°
2026-04-30 18:56 48.83752 11.22751 19837 ft 384 kts 335°
2026-04-30 18:56 48.86149 11.21072 20383 ft 381 kts 345°
2026-04-30 18:57 48.90864 11.17259 21426 ft 398 kts 323°
2026-04-30 18:57 48.92918 11.14421 21939 ft 401 kts 322°
2026-04-30 18:57 48.94970 11.11533 22434 ft 403 kts 322°
2026-04-30 18:58 48.99083 11.05662 23395 ft 407 kts 322°
2026-04-30 18:58 49.01158 11.02698 23873 ft 410 kts 322°
2026-04-30 18:58 49.03243 10.99733 24267 ft 412 kts 322°
2026-04-30 18:59 49.07455 10.93751 25004 ft 417 kts 322°
2026-04-30 19:00 49.13884 10.84616 26042 ft 424 kts 322°
2026-04-30 19:00 49.16046 10.81535 26358 ft 427 kts 322°
2026-04-30 19:00 49.20408 10.75306 27011 ft 432 kts 322°
2026-04-30 19:01 49.24824 10.68974 27648 ft 437 kts 322°
2026-04-30 19:01 49.27042 10.65797 27974 ft 439 kts 322°
2026-04-30 19:02 49.31535 10.59351 28601 ft 444 kts 322°
2026-04-30 19:02 49.36061 10.52825 29275 ft 447 kts 322°
2026-04-30 19:03 49.40574 10.46280 30149 ft 446 kts 322°
2026-04-30 19:03 49.45080 10.39737 30395 ft 446 kts 322°
2026-04-30 19:04 49.49556 10.33239 30382 ft 445 kts 322°
2026-04-30 19:05 49.58597 10.20056 30375 ft 446 kts 322°
2026-04-30 19:06 49.67599 10.06842 30378 ft 447 kts 322°
2026-04-30 19:06 49.74322 9.96935 30383 ft 447 kts 321°
2026-04-30 19:07 49.81063 9.86949 30378 ft 447 kts 321°
2026-04-30 19:08 49.90043 9.73603 30380 ft 448 kts 321°
2026-04-30 19:09 49.96776 9.63545 30382 ft 448 kts 321°
2026-04-30 19:09 50.01251 9.56821 30384 ft 448 kts 320°
2026-04-30 19:10 50.05457 9.49646 30377 ft 454 kts 308°
2026-04-30 19:10 50.08131 9.40658 30371 ft 464 kts 289°
2026-04-30 19:11 50.10678 9.26126 31254 ft 462 kts 288°
2026-04-30 19:11 50.11524 9.21304 31686 ft 460 kts 288°
2026-04-30 19:12 50.12364 9.16509 32116 ft 458 kts 288°
2026-04-30 19:12 50.13198 9.11732 32559 ft 456 kts 288°
2026-04-30 19:12 50.14029 9.06966 32995 ft 454 kts 288°
2026-04-30 19:13 50.15647 8.97634 33824 ft 451 kts 288°
2026-04-30 19:13 50.17275 8.88185 34347 ft 453 kts 288°
2026-04-30 19:14 50.18922 8.78591 34355 ft 460 kts 288°
2026-04-30 19:14 50.20572 8.68945 34357 ft 461 kts 288°
2026-04-30 19:15 50.22198 8.59335 34352 ft 461 kts 288°
2026-04-30 19:15 50.24643 8.44773 34358 ft 462 kts 287°
2026-04-30 19:16 50.26267 8.35066 34361 ft 462 kts 287°
2026-04-30 19:17 50.28693 8.20492 34362 ft 462 kts 287°
2026-04-30 19:17 50.31110 8.05860 34362 ft 462 kts 287°
2026-04-30 19:18 50.33487 7.91222 34362 ft 462 kts 286°
2026-04-30 19:19 50.35071 7.81463 34358 ft 462 kts 286°
2026-04-30 19:19 50.37428 7.66840 34361 ft 461 kts 286°
2026-04-30 19:20 50.38987 7.57076 34353 ft 461 kts 285°
2026-04-30 19:21 50.41300 7.42449 34355 ft 461 kts 285°
2026-04-30 19:22 50.44345 7.22979 34343 ft 461 kts 285°
2026-04-30 19:23 50.49011 6.93718 34346 ft 459 kts 293°
2026-04-30 19:24 50.52662 6.79813 34339 ft 459 kts 294°
2026-04-30 19:25 50.58719 6.56557 34329 ft 460 kts 293°
2026-04-30 19:26 50.63530 6.37909 34322 ft 460 kts 293°
2026-04-30 19:27 50.67127 6.23868 34310 ft 461 kts 293°
2026-04-30 19:28 50.70694 6.09870 34308 ft 461 kts 292°
2026-04-30 19:29 50.75040 5.92649 34311 ft 461 kts 292°
2026-04-30 19:30 50.79757 5.73781 34314 ft 461 kts 292°
2026-04-30 19:31 50.84455 5.54900 34310 ft 461 kts 292°
2026-04-30 19:31 50.87940 5.40742 34309 ft 462 kts 292°